Location: Banff
(51.1667°N, 115.5667°W)
Time: 01:56:42
(UTC+00:00)

deb Explorer IX - Pass Details

Date: 01 December 2020
Orbit: 536 x 1104 km, 38.8° (Epoch: 25 January)

Event Time Altitude Azimuth Distance (km) Brightness Sun altitude
Rises 02:22:03 0° 252° (WSW) 3,424 ? -24.7°
Reaches altitude 10° 02:25:22 10° 236° (SW) 2,367 ? -25.2°
Maximum altitude 02:29:15 20° 191° (SSW) 1,664 ? -25.8°
Enters shadow 02:30:22 18° 174° (S) 1,689 ? -26.0°
